Weather History for Milwaukee, WI

Change the Weather History Date:

Friday, March 15, 2013

  Actual Average Record
Temperature  
Mean Temperature 34 °F 35 °F  
Max Temperature 38 °F 42 °F 72 °F (2012)
Min Temperature 29 °F 27 °F 2 °F (1877)
Degree Days  
Heating Degree Days 31 30  
Month to date heating degree days 536 490  
Since 1 July heating degree days 5261 5470  
Cooling Degree Days 0 0  
Month to date cooling degree days 0 0  
Year to date cooling degree days 0 0  
Moisture  
Dew Point 29 °F    
Average Humidity 83    
Maximum Humidity 96    
Minimum Humidity 70    
Precipitation  
Precipitation 0.05 in 0.07 in 1.63 in (1943)
Month to date precipitation 1.42 0.97  
Year to date precipitation 7.62 4.38  
Snow  
Snow 0.70 in 0.20 in 5.00 in (1923)
Month to date snowfall 6.0 4.4  
Since 1 July snowfall 43.2 42.2  
Snow Depth 2.00 in    
Sea Level Pressure  
Sea Level Pressure 29.92 in    
Wind  
Wind Speed 8 mph (NNE)    
Max Wind Speed 21 mph    
Max Gust Speed 26 mph    
Visibility 6 miles    
Events Rain , Snow    
T = Trace of Precipitation, MM = Missing Value Source: NWS Daily Summary

Daily Weather History Graph

Daily Weather History Graph

Search for Another Location

Airport:

Trip Planner

Search our weather history database for the weather conditions in past years. The results will help you decide how hot, cold, wet, or windy it might be!

Date:

Astronomy

Mar. 15, 2013 Rise Set
Actual Time 7:03 AM CDT 6:58 PM CDT
Civil Twilight 6:34 AM CDT 7:26 PM CDT
Nautical Twilight 6:02 AM CDT 7:59 PM CDT
Astronomical Twilight 5:28 AM CDT 8:33 PM CDT
Moon 8:46 AM CDT (3/15) 11:19 PM CDT (3/15)
Length of Visible Light 12h 51m
Length of Day
11h 55m
Waxing Crescent, 15% of the Moon is Illuminated
Mar 15
Waxing Crescent
Mar 19
First Quarter
Mar 27
Full
Apr 2
Last Quarter
Apr 10
New

Hourly Weather History & Observations

Time (CDT) Temp. Windchill Dew Point Humidity Pressure Visibility Wind Dir Wind Speed Gust Speed Precip Events Conditions
12:52 AM 30.0 °F 22.4 °F 27.0 °F 88% 30.05 in 6.0 mi SW 8.1 mph - N/A   Scattered Clouds
1:52 AM 30.0 °F 24.1 °F 27.0 °F 88% 30.04 in 6.0 mi SW 5.8 mph - N/A   Mostly Cloudy
2:52 AM 30.0 °F 25.2 °F 28.0 °F 92% 30.03 in 6.0 mi West 4.6 mph - N/A   Overcast
3:52 AM 30.0 °F 26.5 °F 27.0 °F 88% 30.00 in 6.0 mi SSW 3.5 mph - N/A   Mostly Cloudy
4:52 AM 30.0 °F - 28.0 °F 92% 29.98 in 6.0 mi Calm Calm - N/A   Overcast
5:52 AM 30.0 °F 25.2 °F 27.0 °F 88% 29.98 in 6.0 mi SW 4.6 mph - N/A   Mostly Cloudy
6:52 AM 30.9 °F - 28.0 °F 89% 29.96 in 6.0 mi Calm Calm - N/A   Overcast
7:52 AM 30.9 °F 25.2 °F 28.0 °F 89% 29.96 in 4.0 mi WSW 5.8 mph - N/A   Overcast
8:52 AM 33.1 °F 26.9 °F 28.9 °F 85% 29.95 in 5.0 mi WNW 6.9 mph - N/A   Overcast
9:52 AM 34.0 °F 28.8 °F 28.9 °F 82% 29.94 in 5.0 mi NW 5.8 mph - N/A   Haze
10:52 AM 36.0 °F 33.3 °F 28.9 °F 76% 29.94 in 5.0 mi Variable 3.5 mph - N/A   Haze
11:52 AM 37.0 °F 31.6 °F 28.9 °F 73% 29.93 in 4.0 mi NE 6.9 mph - N/A   Haze
12:45 PM 35.6 °F 29.9 °F 28.4 °F 75% 29.92 in 2.5 mi NNE 6.9 mph - 0.00 in Snow Light Snow
12:52 PM 35.1 °F 27.9 °F 28.9 °F 78% 29.95 in 2.5 mi NNE 9.2 mph - 0.00 in Snow Light Snow
1:07 PM 35.6 °F 28.6 °F 28.4 °F 75% 29.92 in 2.5 mi NNE 9.2 mph - 0.01 in Snow Light Snow
1:23 PM 33.8 °F 27.7 °F 30.2 °F 87% 29.92 in 1.8 mi NNE 6.9 mph - 0.01 in Snow Light Snow
1:45 PM 33.8 °F 28.6 °F 30.2 °F 87% 29.92 in 1.0 mi North 5.8 mph - 0.01 in Snow Light Snow
1:52 PM 34.0 °F 29.8 °F 30.9 °F 89% 29.94 in 0.8 mi NE 4.6 mph - 0.01 in Snow Light Snow
2:10 PM 33.8 °F 28.6 °F 30.2 °F 87% 29.91 in 0.8 mi North 5.8 mph - 0.01 in Snow Light Snow
2:44 PM 33.8 °F 27.7 °F 32.0 °F 93% 29.90 in 1.0 mi NNE 6.9 mph - 0.02 in Snow Light Snow
2:52 PM 34.0 °F 26.6 °F 30.9 °F 89% 29.92 in 1.0 mi NNE 9.2 mph - 0.02 in Snow Light Snow
3:07 PM 33.8 °F 25.8 °F 32.0 °F 93% 29.89 in 1.0 mi NNE 10.4 mph - 0.00 in Snow Light Snow
3:24 PM 33.8 °F 25.8 °F 32.0 °F 93% 29.89 in 0.8 mi NNE 10.4 mph - 0.00 in Snow Light Snow
3:32 PM 33.8 °F 25.8 °F 32.0 °F 93% 29.89 in 1.0 mi NNE 10.4 mph - 0.00 in Snow Light Snow
3:52 PM 33.1 °F 25.5 °F 32.0 °F 96% 29.91 in 1.0 mi NNE 9.2 mph - 0.00 in Snow Light Snow
4:08 PM 33.8 °F 26.4 °F 32.0 °F 93% 29.88 in 0.8 mi NNE 9.2 mph - 0.00 in Snow Light Snow
4:22 PM 33.8 °F 25.3 °F 32.0 °F 93% 29.88 in 1.5 mi NE 11.5 mph - 0.01 in Snow Light Snow
4:52 PM 33.1 °F 24.9 °F 30.9 °F 92% 29.91 in 1.5 mi NE 10.4 mph - 0.01 in Snow Light Snow
4:56 PM 33.8 °F 25.3 °F 30.2 °F 87% 29.88 in 7.0 mi NE 11.5 mph - 0.00 in Snow Light Snow
5:26 PM 32.0 °F 23.0 °F 30.2 °F 93% 29.87 in 10.0 mi ENE 11.5 mph - 0.00 in   Light Ice Pellets
5:39 PM 32.0 °F 22.5 °F 30.2 °F 93% 29.87 in 10.0 mi ENE 12.7 mph - 0.00 in   Overcast
5:52 PM 32.0 °F 22.1 °F 30.0 °F 92% 29.89 in 10.0 mi ENE 13.8 mph - 0.00 in   Overcast
6:19 PM 32.0 °F 22.5 °F 28.4 °F 87% 29.86 in 10.0 mi NE 12.7 mph - N/A   Overcast
6:52 PM 32.0 °F 22.5 °F 28.9 °F 88% 29.88 in 10.0 mi NE 12.7 mph - 0.00 in   Light Drizzle
7:05 PM 32.0 °F 22.1 °F 28.4 °F 87% 29.86 in 10.0 mi NE 13.8 mph - 0.00 in   Light Drizzle
7:12 PM 32.0 °F 22.1 °F 28.4 °F 87% 29.85 in 10.0 mi NE 13.8 mph 21.9 mph 0.00 in   Light Drizzle
7:52 PM 32.0 °F 22.1 °F 27.0 °F 82% 29.88 in 10.0 mi NE 13.8 mph - 0.00 in   Overcast
8:52 PM 32.0 °F 22.5 °F 25.0 °F 75% 29.89 in 10.0 mi NNE 12.7 mph - N/A   Overcast
9:52 PM 32.0 °F 24.2 °F 25.0 °F 75% 29.89 in 10.0 mi NE 9.2 mph - N/A   Overcast
10:52 PM 32.0 °F 22.5 °F 28.0 °F 85% 29.87 in 10.0 mi NE 12.7 mph - N/A   Overcast
11:18 PM 32.0 °F 20.1 °F 28.4 °F 87% 29.83 in 10.0 mi NE 19.6 mph 23.0 mph 0.00 in   Ice Pellets
11:25 PM 30.2 °F 19.3 °F 28.4 °F 93% 29.83 in 10.0 mi NE 15.0 mph 23.0 mph 0.00 in Rain Light Freezing Rain
11:43 PM 30.2 °F 19.8 °F 28.4 °F 93% 29.82 in 10.0 mi NE 13.8 mph 23.0 mph 0.00 in Snow Light Ice Pellets
11:52 PM 30.9 °F 20.7 °F 28.9 °F 92% 29.83 in 5.0 mi NE 13.8 mph 21.9 mph 0.00 in Snow Light Snow